Location: Be?chatów
(51.3665°N, 19.3745°E)
Time: 22:58:51
(UTC+00:00)

Cosmos 1151 Rocket - Pass Details

Date: 19 May 2025
Orbit: 586 x 607 km, 82.5° (Epoch: 16 June)

Event Time Altitude Azimuth Distance (km) Brightness Sun altitude
Exits shadow 22:19:32 43° 167° (SSE) 827 3.2 -18.5°
Maximum altitude 22:20:48 71° 98° (E) 626 3.0 -18.5°
Drops below altitude 10° 22:25:01 10° 14° (NNE) 1,923 6.7 -18.6°
Sets 22:27:14 0° 13° (NNE) 2,828 7.9 -18.6°
